Location: Newark
(12.4436°N, 0.6167°W)
Time: 22:01:26
(UTC+00:00)

N. Korean satellite - Visible Passes

Search period start: 17 November 2019 00:00
Search period end: 27 November 2019 00:00
Orbit: 456 x 506 km, 97.2° (Epoch: 17 November)

Date Brightness Start Highest point End Pass type
(mag) Time Alt. Az. Time Alt. Az. Time Alt. Az.
17 Nov 6.8 05:35:07 10° NNE 05:38:45 76° E 05:42:20 10° S visible
18 Nov 9.0 05:10:16 10° NE 05:13:24 27° E 05:16:29 10° SSE visible
19 Nov 10.3 04:47:00 10° E 04:48:00 11° E 04:48:59 10° ESE visible
19 Nov 9.9 18:12:37 10° SW 18:14:49 16° W 18:17:03 10° WNW visible
21 Nov 7.5 05:27:03 10° NNE 05:30:35 54° E 05:34:03 10° S visible
22 Nov 9.5 05:02:30 10° NE 05:05:12 20° E 05:07:54 10° SSE visible
23 Nov 9.6 18:03:50 10° SSW 18:06:36 21° W 18:09:24 10° NW visible
25 Nov 8.2 05:19:01 10° NNE 05:22:22 38° E 05:25:40 10° S visible
26 Nov 9.9 04:54:51 10° ENE 04:56:58 15° E 04:59:03 10° SE visible
26 Nov 10.3 18:22:34 10° WSW 18:23:46 11° W 18:25:00 10° WNW visible
